Погода в Ровном

Украина / Кировоградская область     48°14′25″N   31°44′56″E
темп.,
°C
ветер,
м/с
пор.,
м/с
влажн.,
%
обл.,
%
осадки,
мм/ч
давл.,
гПа
погр.,
м
16 мая, вс
вс1600:00+13сз11804 0.0 101211
03:00+12всв1182100 0.0 101310
06:00+12в238275 0.0 101226
09:00+18в3365100 0.0 1012325
12:00+22в455190 0.0 10111497
15:00+23вюв4441100 0.0 10101895
18:00+22вюв2447100 0.0 10091301
21:00+17св476768 0.0 100892
17 мая, пн
пн1700:00+16св41370100 0.0 1007280
03:00+15св4697100 1.8 1005145
06:00+15ссз51096100 1.9 1003309
09:00+16с6109096 2.4 1003493
12:00+22св446742 0.0 10011039
15:00+22ююв346529 5.0 10001071
18:00+20юз457742 2.6 1000694
21:00+14зюз71194100 5.9 1002591
18 мая, вт
вт1800:00+12юз61195100 1.8 1004338
03:00+12ююв499722 1.8 1004222
06:00+12ююв5119878 0.0 1004296
09:00+17ю81084100 0.4 1004668
12:00+15ююв81383100 0.9 1004840
15:00+16ююв8119077 2.6 1003751
18:00+18юз78738 1.7 10021055
21:00+12з499140 2.9 1003287
19 мая, ср
ср1900:00+10юз6109592 0.0 1004437
03:00+10юз51095100 0.1 1003536
06:00+10зюз61097100 0.5 1003612
09:00+11з81294100 1.3 1004903
12:00+11з81291100 0.4 1006990
15:00+11з91591100 1.9 1008831
18:00+13з7128140 1.3 10091055
21:00+11зюз512905 1.3 1011324
20 мая, чт
чт2000:00+10з49920 0.0 1012165
03:00+9зюз3492100 0.0 101262
06:00+11з1187100 0.0 101220
09:00+14ююв3474100 0.0 1011363
12:00+16ююв4665100 0.0 1011688
15:00+17юв1362100 0.4 1010800
18:00+14ссв5980100 1.3 1007187
21:00+12ююв2894100 9.9 1007361